Dewpoint
65 67 71 72 72 72 72 72 72 72 72 72 72 72 72 72 71 71 71 71 70 69 69 68 68 68 68 68 67 67 68 68 68 68 67 68 68 69 69 69 69 64 68
66 68 71 72 72 72 72 72 72 72 72 72 72 72 71 71 71 71 71 71 71 70 70 70 69 68 67 66 66 66 67 67 67 68 67 66 67 68 68 69 68 66 68
68 68 69 71 71 72 72 72 72 72 71 71 71 71 71 71 71 70 70 69 70 69 68 68 67 67 67 66 66 65 66 66 67 68 67 63 64 68 67 68 69 68 68
67 68 69 71 71 71 71 71 71 71 70 70 70 68 69 70 69 68 68 68 67 68 66 66 67 66 66 65 65 65 66 67 68 68 65 65 63 68 67 68 68 68 68
66 67 69 70 71 71 71 71 71 70 71 70 70 69 69 68 68 68 67 66 66 66 66 66 65 64 61 59 59 63 67 67 67 67 66 66 66 67 68 68 68 69 69
66 67 69 70 70 71 71 71 71 70 70 69 69 69 68 68 67 66 66 65 64 62 61 61 59 58 58 59 58 61 66 66 67 65 66 67 66 68 68 68 68 68 68
65 68 69 69 70 71 70 70 70 69 69 69 69 68 67 66 66 65 64 61 58 57 56 57 57 58 59 59 58 60 66 66 64 64 65 66 67 68 68 68 67 67 67
67 68 69 70 70 70 70 70 69 69 69 68 67 66 66 65 64 61 58 57 57 57 57 57 58 58 61 61 59 63 62 62 62 62 63 63 65 66 66 65 65 67 67
68 68 70 69 69 69 69 68 68 68 68 67 66 65 64 62 59 56 56 57 57 57 58 57 57 59 62 62 62 61 61 61 60 60 60 61 64 63 62 62 64 65 65
66 66 68 69 69 69 69 67 67 67 67 66 64 61 59 59 58 57 58 57 56 56 57 57 57 59 60 60 60 59 59 60 58 58 58 58 61 60 60 60 63 63 63
63 64 65 65 66 66 66 67 66 66 65 63 59 57 55 54 53 52 55 57 55 56 55 55 58 59 59 58 58 57 57 54 53 53 54 60 58 58 58 62 61 61 60
61 61 62 63 63 64 65 64 64 63 60 59 57 53 52 54 54 54 56 57 55 55 54 54 54 56 54 52 53 54 52 53 52 52 55 61 59 57 60 60 59 58 57
61 61 61 61 62 62 61 60 59 59 58 57 54 52 54 56 56 53 49 47 48 47 44 45 44 45 51 50 51 52 52 51 51 52 55 57 59 60 59 57 56 55 55
61 61 60 60 60 60 59 58 57 55 57 57 55 55 54 55 53 49 46 46 46 44 46 45 45 49 52 52 52 51 50 50 51 52 53 57 58 58 56 54 53 53 53
60 60 59 59 59 60 59 55 53 53 55 56 54 53 53 54 51 47 47 45 44 44 44 44 45 46 51 51 50 49 50 51 51 48 50 56 55 53 52 52 52 52 53
60 60 59 57 59 57 57 56 53 53 54 53 52 52 51 50 48 46 45 44 44 44 43 43 43 45 49 50 49 48 48 49 49 49 48 49 52 50 50 49 50 50 50
60 60 59 57 56 55 55 55 52 51 51 51 50 50 50 49 48 47 45 44 44 45 45 43 43 46 49 48 48 47 48 48 47 47 47 46 47 48 47 47 47 48 48
59 59 58 55 53 53 53 52 50 49 50 49 48 49 49 48 48 47 44 43 44 44 43 41 41 45 49 47 46 45 45 46 46 46 45 45 43 39 43 44 45 46 47
58 59 58 57 51 51 52 51 50 49 48 46 47 47 48 47 47 46 43 44 45 43 44 41 41 46 48 46 44 43 44 43 42 41 41 37 35 32 31 40 42 44 46
59 59 59 57 52 51 50 50 47 46 46 45 45 46 47 45 46 45 43 44 43 42 42 41 41 46 47 43 39 40 41 40 39 39 35 32 32 34 33 34 32 35 43
59 59 58 56 51 49 48 48 47 44 44 44 44 46 46 45 46 45 42 42 42 42 41 42 43 45 43 42 39 39 38 38 37 35 34 31 31 32 34 33 31 30 33
57 58 58 55 50 49 49 50 48 45 43 42 42 44 44 44 45 43 42 41 41 41 41 41 43 43 42 42 39 37 35 35 35 35 33 31 32 29 30 32 33 33 33
55 56 55 52 49 49 49 47 46 43 41 40 40 42 42 43 43 42 41 40 40 41 40 40 42 42 40 39 41 39 35 34 33 34 34 30 31 30 30 32 32 32 34
53 53 51 48 48 48 48 48 45 43 41 41 39 40 40 41 42 40 40 39 39 39 40 40 39 41 41 38 38 37 40 37 33 30 31 31 29 27 29 29 32 33 32
51 50 49 48 47 47 47 47 46 44 43 40 40 39 40 40 40 39 39 39 38 38 39 40 40 39 39 40 38 36 37 37 37 32 28 28 28 28 27 29 31 33 33
51 50 48 47 46 47 47 47 47 45 43 41 41 41 39 39 38 38 38 37 37 37 37 37 37 38 37 37 39 37 37 36 35 33 29 28 26 26 26 27 30 33 33
Lifted_Index
-3 -4 -5 -6 -6 -6 -6 -6 -6 -6 -6 -6 -6 -6 -6 -6 -6 -5 -5 -5 -5 -5 -5 -4 -4 -4 -3 -3 -2 -2 -2 -2 -2 -3 -3 -3 -4 -4 -4 -3 -3 -2 -3
-3 -4 -5 -6 -6 -6 -6 -6 -6 -6 -6 -6 -6 -6 -6 -6 -6 -5 -5 -5 -5 -5 -5 -4 -4 -4 -3 -3 -2 -2 -2 -2 -2 -3 -3 -3 -3 -4 -3 -3 -3 -3 -3
-4 -4 -5 -5 -6 -6 -6 -6 -6 -6 -6 -6 -6 -6 -6 -6 -5 -5 -5 -4 -5 -5 -4 -4 -4 -3 -3 -2 -2 -2 -2 -2 -3 -3 -3 -3 -3 -4 -3 -3 -3 -3 -3
-3 -4 -4 -5 -5 -6 -6 -6 -6 -6 -6 -5 -5 -5 -5 -5 -5 -4 -4 -4 -4 -4 -4 -3 -3 -2 -2 -2 -1 -2 -2 -3 -3 -4 -4 -4 -4 -4 -4 -4 -3 -3 -3
-3 -3 -4 -5 -5 -6 -6 -6 -6 -6 -5 -5 -5 -5 -5 -5 -4 -3 -3 -3 -3 -2 -2 -2 -1 -1 -0 0 -0 -1 -2 -3 -4 -4 -5 -5 -4 -4 -4 -3 -3 -3 -3
-3 -3 -4 -5 -5 -5 -5 -5 -5 -5 -5 -5 -5 -5 -5 -4 -3 -3 -2 -2 -1 -0 0 1 1 2 2 2 2 0 -2 -3 -3 -4 -4 -4 -4 -4 -3 -3 -3 -3 -2
-2 -3 -4 -4 -5 -5 -5 -5 -5 -5 -5 -4 -4 -4 -4 -3 -3 -2 -1 -0 1 3 3 3 3 3 3 3 2 1 -1 -2 -3 -3 -3 -3 -3 -3 -2 -2 -2 -2 -2
-2 -3 -4 -5 -5 -5 -5 -5 -5 -4 -4 -4 -4 -3 -3 -2 -2 -1 -0 2 3 4 4 4 4 3 2 2 2 1 -0 -1 -1 -1 -1 -1 -1 -1 -1 -1 -1 -1 -1
-3 -3 -4 -5 -5 -5 -5 -5 -4 -4 -4 -4 -3 -3 -2 -2 -1 -0 2 3 4 5 4 4 4 3 2 2 2 1 1 1 0 0 1 1 1 1 1 1 1 1 1
-3 -3 -4 -4 -4 -4 -5 -5 -4 -4 -3 -3 -3 -2 -2 -1 -0 2 3 4 5 5 5 5 4 4 3 3 3 3 3 2 2 2 2 3 3 3 3 3 2 2 2
-3 -3 -3 -3 -3 -3 -4 -4 -4 -3 -3 -3 -2 -2 -2 -1 1 3 5 5 5 6 6 6 5 5 4 5 5 5 4 4 4 4 4 4 4 4 4 4 4 4 5
-2 -2 -2 -2 -2 -2 -2 -3 -3 -3 -3 -3 -2 -2 -2 -0 2 5 6 6 7 7 8 8 7 7 6 6 6 6 6 6 5 5 4 4 4 4 5 5 6 6 7
-1 -2 -2 -2 -1 -1 -1 -2 -2 -2 -2 -3 -3 -3 -2 -0 3 6 8 8 9 9 10 10 10 9 8 7 7 7 7 7 6 6 5 5 4 4 5 6 7 8 8
-1 -1 -1 -1 -1 -1 -1 -1 -2 -2 -2 -2 -2 -2 -2 -0 2 6 8 9 10 10 10 10 10 9 8 8 8 8 8 7 7 7 6 6 5 6 7 8 9 9 9
-1 -1 -1 -1 -0 -0 -0 -1 -2 -2 -2 -2 -2 -2 -1 1 3 6 8 9 9 10 10 10 10 9 8 8 8 9 9 8 8 8 7 7 7 8 9 10 10 10 10
-1 -1 -2 -1 -1 -0 -0 -1 -2 -2 -2 -2 -1 0 2 4 6 8 9 9 9 9 10 10 10 9 8 8 9 9 9 9 9 9 9 9 9 10 11 12 12 12 11
-1 -1 -2 -2 -1 -1 -1 -1 -1 -1 -0 0 1 3 5 6 8 8 9 9 9 9 10 10 10 9 8 8 8 9 9 10 10 10 10 10 11 12 13 13 13 13 13
-1 -1 -1 -2 -1 -1 -1 -1 0 2 3 4 5 6 7 7 8 8 9 9 9 10 10 10 10 9 8 8 8 9 9 10 10 11 11 11 12 13 14 14 15 14 14
-2 -1 -1 -2 -1 -1 -1 0 2 4 5 6 7 7 7 8 8 8 9 9 9 9 9 10 9 9 8 8 8 9 9 9 10 11 11 12 12 13 14 15 15 15 15
-2 -2 -2 -2 -1 -1 -1 0 2 3 5 6 6 7 7 7 8 8 9 9 9 9 9 9 9 9 8 8 8 9 9 10 10 11 12 12 13 13 14 15 16 16 16
-1 -1 -2 -2 -1 -1 -1 -1 0 2 3 4 5 6 7 8 8 9 9 9 9 9 9 9 9 9 8 8 9 9 10 10 11 12 12 13 13 14 15 16 17 17 17
1 0 -1 -1 -1 -2 -2 -1 -0 1 2 4 5 6 7 8 9 9 9 9 9 9 9 9 9 9 9 9 9 10 10 10 11 12 13 13 13 14 15 16 17 18 18
2 1 1 -0 -1 -1 -1 -1 0 1 2 3 4 5 7 8 9 9 9 9 9 10 10 10 10 10 9 9 10 10 10 10 11 12 13 13 13 13 14 16 17 17 17
3 2 2 1 -0 -1 -1 -0 0 1 2 3 5 6 8 9 10 10 9 9 9 10 10 11 11 11 10 10 10 10 10 10 10 10 11 12 12 13 13 15 16 16 16
3 3 2 2 1 0 1 2 2 3 4 6 7 8 9 10 10 10 10 10 10 10 11 11 12 12 11 10 10 10 10 9 9 9 10 10 11 12 13 14 15 15 15
3 3 3 2 1 1 2 3 4 5 6 8 9 9 10 10 10 10 10 10 10 10 11 12 12 12 12 11 10 9 9 9 9 9 9 9 10 11 12 14 15 15 15